Weather History for KIWI - May, 2013

Change the Weather History Date:

Friday, May 17, 2013

  Actual Average (KAUG) Record (KAUG)
Temperature  
Mean Temperature 54 °F 55 °F  
Max Temperature 64 °F 66 °F 77 °F (2015)
Min Temperature 43 °F 45 °F 35 °F (2003)
Degree Days  
Heating Degree Days 10 10  
Month to date heating degree days 210  
Since 1 July heating degree days 7214  
Cooling Degree Days 0 0  
Month to date cooling degree days 0  
Year to date cooling degree days 0  
Growing Degree Days 4 (Base 50)    
Moisture  
Dew Point 38 °F    
Average Humidity 55    
Maximum Humidity 82    
Minimum Humidity 34    
Precipitation  
Precipitation 0.00 in 0.12 in 1.04 in (2014)
Month to date precipitation 2.02  
Year to date precipitation 14.22  
Sea Level Pressure  
Sea Level Pressure 30.01 in    
Wind  
Wind Speed 3 mph (NNE)    
Max Wind Speed 9 mph    
Max Gust Speed 18 mph    
Visibility 10 miles    
Events      
T = Trace of Precipitation, MM = Missing Value Source: NWS Daily Summary

Daily Weather History Graph

Daily Weather History Graph

Search for Another Location

Airport or City:

Trip Planner

Search our weather history database for the weather conditions in past years. The results will help you decide how hot, cold, wet, or windy it might be!

Date:

Astronomy

May. 17, 2013 Rise Set
Actual Time 5:10 AM EDT 8:00 PM EDT
Civil Twilight 4:36 AM EDT 8:34 PM EDT
Nautical Twilight 3:54 AM EDT 9:17 PM EDT
Astronomical Twilight 3:04 AM EDT 10:07 PM EDT
Moon 11:45 AM EDT (5/17) 12:46 AM EDT (5/17)
Length of Visible Light 15h 57m
Length of Day
14h 50m
Waxing Crescent, 45% of the Moon is Illuminated
May 17
Waxing Crescent
May 18
First Quarter
May 25
Full
May 31
Last Quarter
Jun 8
New

Hourly Weather History & Observations

Time (EDT) Temp. Dew Point Humidity Pressure Visibility Wind Dir Wind Speed Gust Speed Precip Events Conditions
12:53 AM 57.0 °F 37.9 °F 49% 29.80 in 10.0 mi Variable 5.8 mph - N/A   Overcast
1:53 AM 55.0 °F 39.0 °F 55% 29.82 in 10.0 mi Calm Calm - N/A   Partly Cloudy
2:53 AM 51.1 °F 39.9 °F 66% 29.83 in 10.0 mi Calm Calm - N/A   Clear
3:53 AM 48.0 °F 39.0 °F 71% 29.84 in 10.0 mi Variable 3.5 mph - N/A   Clear
4:53 AM 48.9 °F 39.0 °F 69% 29.87 in 10.0 mi Calm Calm - N/A   Clear
5:53 AM 50.0 °F 39.0 °F 66% 29.89 in 10.0 mi Calm Calm - N/A   Clear
6:53 AM 52.0 °F 39.9 °F 63% 29.91 in 10.0 mi Calm Calm - N/A   Clear
8:53 AM 55.0 °F 41.0 °F 59% 29.98 in 10.0 mi Variable 5.8 mph 16.1 mph N/A   Overcast
9:53 AM 54.0 °F 43.0 °F 66% 30.00 in 10.0 mi NNE 9.2 mph - N/A   Overcast
10:53 AM 57.0 °F 41.0 °F 55% 30.01 in 10.0 mi Variable 6.9 mph - N/A   Mostly Cloudy
11:53 AM 61.0 °F 37.9 °F 42% 30.00 in 10.0 mi Variable 5.8 mph 18.4 mph N/A   Scattered Clouds
12:53 PM 60.1 °F 35.1 °F 39% 30.01 in 10.0 mi North 8.1 mph 18.4 mph N/A   Scattered Clouds
1:53 PM 62.1 °F 36.0 °F 38% 30.03 in 10.0 mi Variable 6.9 mph - N/A   Partly Cloudy
3:53 PM 63.0 °F 35.1 °F 35% 30.05 in 10.0 mi Variable 3.5 mph - N/A   Overcast
4:53 PM 62.1 °F 33.1 °F 34% 30.08 in 10.0 mi Variable 4.6 mph - N/A   Overcast
5:53 PM 62.1 °F 33.1 °F 34% 30.09 in 10.0 mi Variable 3.5 mph - N/A   Mostly Cloudy
6:53 PM 62.1 °F 33.1 °F 34% 30.12 in 10.0 mi Variable 3.5 mph - N/A   Clear
7:53 PM 59.0 °F 34.0 °F 39% 30.14 in 10.0 mi Variable 3.5 mph - N/A   Mostly Cloudy
8:53 PM 52.0 °F 37.9 °F 59% 30.17 in 10.0 mi Calm Calm - N/A   Mostly Cloudy
9:53 PM 48.9 °F 39.9 °F 71% 30.20 in 10.0 mi Calm Calm - N/A   Mostly Cloudy
10:53 PM 46.0 °F 39.0 °F 76% 30.21 in 10.0 mi Calm Calm - N/A   Mostly Cloudy
11:53 PM 43.0 °F 37.9 °F 82% 30.22 in 10.0 mi Calm Calm - N/A   Clear